This is the latest recevied weather packets stored in our database for station/object AD8BW. If no packets are shown the sender has not sent any weather packets the latest 10 day(s).
| Time | Temp. | Humidity | Pressure | Rain* | Wind** | Luminosity | Snow |
|---|---|---|---|---|---|---|---|
| 1778003681 | 12.22° C | 69% | 1005.7 hPa | 0 mm | - | 142 W/m² | - |
| 1778003076 | 11.67° C | 70% | 1005.6 hPa | 0 mm | - | 155 W/m² | - |
| 1778002481 | 11.67° C | 71% | 1005.8 hPa | 0 mm | - | 155 W/m² | - |
| 1778001876 | 11.67° C | 72% | 1005.6 hPa | 0 mm | - | 197 W/m² | - |
| 1778001277 | 11.67° C | 75% | 1005.8 hPa | 0 mm | - | 195 W/m² | - |
| 1778000675 | 11.67° C | 75% | 1005.7 hPa | 0 mm | - | 192 W/m² | - |
| 1778000079 | 11.11° C | 76% | 1005.9 hPa | 0 mm | - | 204 W/m² | - |
| 1777999476 | 10.56° C | 79% | 1005.9 hPa | 0 mm | - | 120 W/m² | - |
| 1777998876 | 10.56° C | 80% | 1005.7 hPa | 0 mm | - | 113 W/m² | - |
| 1777998275 | 10° C | 80% | 1005.9 hPa | 0 mm | - | 70 W/m² | - |
| 1777997677 | 10° C | 80% | 1006 hPa | 0 mm | - | 77 W/m² | - |
| 1777997077 | 10° C | 78% | 1005.9 hPa | 0 mm | - | 62 W/m² | - |
| 1777996475 | 10° C | 77% | 1005.9 hPa | 0 mm | - | 63 W/m² | - |
| 1777995874 | 10° C | 76% | 1005.9 hPa | 0 mm | - | 69 W/m² | - |
| 1777995275 | 10.56° C | 74% | 1006.1 hPa | 0 mm | - | 70 W/m² | - |
| 1777994675 | 10.56° C | 72% | 1006 hPa | 0 mm | - | 83 W/m² | - |
| 1777994076 | 11.11° C | 71% | 1005.6 hPa | 0 mm | - | 86 W/m² | - |
| 1777993470 | 11.11° C | 72% | 1005.6 hPa | 0 mm | - | 88 W/m² | - |
| 1777992871 | 11.11° C | 73% | 1005.1 hPa | 0 mm | - | 95 W/m² | - |
| 1777992270 | 11.11° C | 73% | 1004.9 hPa | 0 mm | - | 76 W/m² | - |
| 1777991670 | 11.11° C | 73% | 1005.1 hPa | 0 mm | - | 88 W/m² | - |
| 1777991070 | 11.11° C | 73% | 1005 hPa | 0 mm | - | 81 W/m² | - |
| 1777990470 | 11.11° C | 73% | 1004.9 hPa | 0 mm | - | 77 W/m² | - |
| 1777989869 | 11.67° C | 72% | 1005 hPa | 0 mm | - | 33 W/m² | - |
| 1777989268 | 11.67° C | 70% | 1004.5 hPa | 0 mm | - | 65 W/m² | - |
* Rain latest hour (hover to see other rain measurements)
** Current wind speed in m/s (hover to see current wind gust speed)